Location: Huesca
(42.1318°N, 0.4078°W)
Time: 09:10:23
(UTC+02:00)

TIGRISAT - Pass Details

Date: 28 April 2024
Orbit: 594 x 672 km, 97.7° (Epoch: 21 May)

Event Time Altitude Azimuth Distance (km) Brightness Sun altitude
Rises 05:19:55 0° 145° (SE) 2,911 ? -17.1°
Reaches altitude 10° 05:22:16 10° 136° (SE) 1,994 ? -16.8°
Maximum altitude 05:26:12 35° 71° (ENE) 1,003 ? -16.2°
Drops below altitude 10° 05:30:05 10° 6° (N) 1,967 ? -15.6°
Sets 05:32:22 0° 357° (N) 2,866 ? -15.3°
